Regional Weather Roundup
Issued by NWS Kansas City/Pleasant Hill, MO

Home | Current Version | Previous Version | Text Only | Print | Product List | Glossary On
Versions: 1 2 3 4 5 6 7 8 9 10 11 12 13 14 15 16 17 18 19 20 21 22 23 24 25 26 27 28 29 30 31 32 33 34 35 36 37 38 39 40 41 42 43 44 45 46 47 48 49 50
000
ASUS43 KEAX 020911
RWREAX

WEATHER ROUNDUP FOR EASTERN KANSAS AND NORTHWEST MISSOURI
NATIONAL WEATHER SERVICE KANSAS CITY/PLEASANT HILL MO
400 AM CDT THU OCT 02 2014

KSZ040-057-103>105-MOZ028-029-037-043-021000-
...KANSAS CITY METROPOLITAN AREA...

CITY           SKY/WX    TMP DP  RH WIND       PRES   REMARKS
K.C. INTL      CLOUDY    68  64  87 SE10      29.72F
K.C. DOWNTOWN  CLOUDY    68  65  90 E5        29.72F
LEES SUMMIT    CLOUDY    65  63  93 E6        29.75S
OLATHE - IXD   MOCLDY    64  63  96 SE6       29.74R
OLATHE - OJC   CLOUDY    65  64  97 SE5       29.73S
LAWRENCE       PTCLDY    64  63  96 SE5       29.72S FOG

$$

MOZ001>008-011>017-020>025-030>033-038>040-044>046-053-054-021000-
...NORTHERN AND CENTRAL MISSOURI...

CITY           SKY/WX    TMP DP  RH WIND       PRES   REMARKS
ST. JOSEPH     MOCLDY    61  60  97 NE6       29.73S
MOSBY          CLOUDY    64  64 100 SE3       29.74S
WHITEMAN AFB   CLOUDY    64  63  94 SE8       29.75S
CLINTON        CLOUDY    68  66  94 E8        29.77F
SEDALIA        TSTM      65  63  93 SE17      29.78F
WARSAW         NOT AVBL
MARSHALL       CLOUDY    66  66 100 SE8       29.78R
CHILLICOTHE      N/A     65  63  93 CALM      29.77S
MOBERLY        DRIZZLE   64  61  88 SE6       29.82R
KIRKSVILLE     CLOUDY    64  63  96 NE5       29.79F FOG

$$

MOZ041-047>049-056>058-063>065-088>090-097-021000-
...EASTERN AND SOUTHERN MISSOURI...

CITY           SKY/WX    TMP DP  RH WIND       PRES   REMARKS
ST. LOUIS INTL LGT RAIN  68  63  84 N20G25    29.90R
SPIRIT OF STL  LGT RAIN  67  64  90 CALM      29.87R
COLUMBIA       TSTM      64  62  93 E15G23    29.83R FOG
MEXICO         TSTM     N/A N/A N/A E6        29.84F
ROLLA          CLOUDY    70  66  87 E5        29.82S
LEBANON        CLEAR     72  68  88 S8        29.81S
OSAGE BEACH    MOCLDY    66  63  88 NE8       29.80S
SPRINGFIELD    CLEAR     72  68  87 S17       29.78S
BRANSON        CLEAR     68  66  94 SE5       29.82F
NEVADA         LGT RAIN  68  66  94 E6        29.76F
JOPLIN         CLOUDY    74  69  85 S15       29.74S
WEST PLAINS    CLEAR     69  66  90 SE8       29.86F

$$

IAZ060-094-KSZ022-034>040-054-083-096-NEZ052-066-093-021000-
...KANSAS...SOUTHEAST NEBRASKA AND IOWA...

CITY           SKY/WX    TMP DP  RH WIND       PRES   REMARKS
TOPEKA         MOCLDY    66  66 100 E5        29.71S FOG
MANHATTAN      CLEAR     64  62  93 N7        29.68F
EMPORIA        CLEAR     65  64  97 SE6       29.69F FOG
CHANUTE        MOCLDY    73  70  90 S14       29.72F
WICHITA        PTCLDY    71  63  75 SE10      29.67F
OMAHA          FOG       64  63  96 SE5       29.77R VSB 1/4
LINCOLN        CLOUDY    64  61  90 N7        29.77S FOG
FALLS CITY     CLOUDY    65  64  97 E5        29.72F
LAMONI         CLOUDY    65  63  93 E3        29.77F FOG
DES MOINES     CLOUDY    64  63  96 E3        29.78R FOG

$$




USA.gov is the U.S. government's official web portal to all federal, state and local government web resources and services.